[[{"header":{"parameterUnit":"m.s-1","parameterCategory":1,"la1":30.2991,"la2":30.254,"lo1":-89.0895,"lo2":-89.0444,"dy":0.0017,"dx":0.0017,"nx":28,"ny":28,"refTime":"2025-11-13T09:00:00:Z","depth":0,"parameterNumber":2,"parameterNumberName":"U-component_of_WINDS"},"data":[0,0,0,0,0,0,0,0,0,0,0,0,0,0,0,0,0,0,0,0,0,0,0,0,0,0,0,0,0,0,0,0,0,0,0,0,0,0,0,0,0,0,0,0,0,0,0,0,0,0,0,0,0,0,0,0,0,0,0.2855,0.2856,0,0.2891,0.2891,0.2891,0.2891,0.2891,0.289,0.289,0.2927,0.2928,0.2929,0,0,0,0,0,0,0,0,0,0,0,0,0,0.2788,0.2789,0.2855,0.2856,0.2856,0.289,0.2891,0.2891,0.2891,0.2891,0.289,0.289,0.2926,0.2928,0.2929,0,0,0,0,0,0,0,0,0,0,0,0,0,0.282,0.279,0.2855,0.286,0.2861,0.289,0.2891,0.2892,0.2891,0.2891,0.289,0.2889,0.2926,0.2928,0.293,0.2957,0,0,0.2936,0.2937,0,0,0,0,0,0,0,0,0.2818,0.2822,0.2859,0.286,0.2861,0.2886,0.2881,0.2913,0.2892,0.288,0.289,0.2889,0.2914,0.2917,0.2925,0.2958,0.296,0.2936,0.2938,0.2939,0.2939,0,0,0,0,0,0,0,0.2816,0.2821,0.2869,0.286,0.2861,0.2861,0.2864,0.2887,0.29,0.2881,0.2881,0.2885,0.2914,0.2923,0.2926,0.296,0.2936,0.2938,0.2939,0.294,0.3018,0.3018,0,0,0,0,0,0,0.2812,0.2819,0.2868,0.287,0.2837,0.2863,0.2867,0.2878,0.29,0.2903,0.2886,0.2885,0.292,0.2923,0.2927,0.296,0.2939,0.2941,0.2942,0.3017,0.3018,0.3019,0,0,0,0,0,0,0.2811,0.2817,0.2867,0.2845,0.2851,0.2864,0.2878,0.288,0.2888,0.2904,0.2906,0.2892,0.2919,0.2924,0.2949,0.2961,0.2941,0.2943,0.3016,0.3017,0.3018,0.3026,0,0,0,0,0,0,0.2809,0.2816,0.2826,0.2845,0.2852,0.2888,0.2878,0.2881,0.2892,0.2891,0.291,0.2913,0.2919,0.2946,0.2951,0.2964,0.2945,0.3015,0.3016,0.3018,0.3024,0.3027,0.3029,0,0,0,0,0,0.2807,0.2827,0.2827,0.2833,0.2865,0.2889,0.2893,0.2899,0.2893,0.2903,0.2913,0.2912,0.2959,0.2949,0.2954,0.2968,0.3014,0.3016,0.3018,0.3023,0.3026,0.3029,0,0,0,0,0,0,0.281,0.283,0.283,0.2857,0.2871,0.2889,0.2902,0.2903,0.2919,0.2918,0.2925,0.293,0.2955,0.2964,0.2952,0.2995,0.2986,0.2989,0.2988,0.2991,0.2993,0.2991,0.2947,0,0,0,0,0,0.2814,0.2832,0.2848,0.287,0.2877,0.2889,0.2899,0.2903,0.2918,0.2924,0.2936,0.2951,0.2968,0.298,0.2998,0.3026,0.303,0.3037,0.304,0.3042,0.3044,0.306,0.3063,0.3024,0.3024,0.3024,0,0,0.2823,0.2835,0.2846,0.2871,0.2883,0.2901,0.2894,0.2913,0.2926,0.2927,0.2951,0.296,0.2978,0.3004,0.3016,0.3012,0.3056,0.3044,0.3045,0.3047,0.3062,0.3065,0.3069,0.3026,0.3025,0.3025,0,0,0.2847,0.2859,0.2879,0.289,0.2908,0.2915,0.292,0.2937,0.2943,0.2968,0.2968,0.2984,0.3015,0.3027,0.3038,0.3066,0.3066,0.3072,0.3084,0.3099,0.3102,0.3105,0.3115,0.3119,0.3074,0.3074,0.3074,0,0.2856,0.2883,0.2889,0.2908,0.2919,0.292,0.2941,0.2952,0.2974,0.2982,0.2977,0.3015,0.3027,0.3056,0.3063,0.3071,0.3077,0.307,0.3101,0.3104,0.3107,0.3117,0.312,0.3075,0.3075,0.3075,0.3075,0,0.2892,0.2911,0.2925,0.2946,0.2959,0.2978,0.2988,0.3,0.3002,0.301,0.3035,0.3049,0.3069,0.3076,0.3079,0.3106,0.3103,0.31,0.3091,0.3111,0.312,0.3124,0.3076,0.3076,0.3075,0.3075,0,0,0.292,0.2944,0.2949,0.2959,0.2978,0.2993,0.3012,0.3032,0.3042,0.3058,0.3074,0.31,0.3097,0.3109,0.3113,0.3126,0.3148,0.3121,0.3121,0.3125,0.3178,0.3181,0.3185,0.3148,0.3148,0.3149,0.3177,0,0.2946,0.2981,0.2988,0.3018,0.3036,0.3037,0.3054,0.3068,0.3075,0.3091,0.31,0.3118,0.3113,0.312,0.3133,0.3142,0.3158,0.314,0.3163,0.3164,0.3159,0.319,0.3193,0.3218,0.318,0.3181,0.3182,0,0.2982,0.2998,0.303,0.3047,0.3055,0.307,0.3088,0.3103,0.3119,0.3124,0.3136,0.3139,0.316,0.315,0.3178,0.3166,0.3176,0.3182,0.3183,0.3185,0.3174,0.3193,0.3226,0.323,0.3187,0.3187,0.3187,0,0.2999,0.3029,0.3052,0.306,0.308,0.3091,0.31,0.3115,0.3126,0.3142,0.3149,0.3168,0.3178,0.3192,0.3199,0.3192,0.3227,0.3218,0.3232,0.3232,0.3239,0.3239,0.3275,0.3246,0.3246,0.3246,0.3246,0,0.3028,0.3048,0.306,0.3074,0.3096,0.3103,0.3125,0.3133,0.3147,0.3163,0.3165,0.318,0.3189,0.3205,0.3211,0.3234,0.3238,0.3243,0.3244,0.3242,0.3242,0.3249,0.3247,0.3247,0.3246,0.3246,0.3246,0,0.3051,0.306,0.3085,0.3102,0.3107,0.3122,0.3137,0.3151,0.3158,0.3178,0.3183,0.3196,0.3215,0.3224,0.3248,0.3252,0.3277,0.3277,0.3272,0.3272,0.3286,0.3284,0.3327,0.3333,0.33,0.3301,0.3301,0,0.3069,0.3084,0.3102,0.3113,0.3122,0.314,0.3151,0.3159,0.317,0.3189,0.3201,0.322,0.3236,0.3267,0.3278,0.3296,0.3296,0.331,0.3299,0.3297,0.3296,0.3295,0.3297,0.3312,0.3313,0.3313,0.3313,0,0.3099,0.3103,0.3119,0.3137,0.3151,0.3165,0.318,0.3188,0.3198,0.3211,0.3231,0.3243,0.3267,0.3287,0.3305,0.3315,0.3316,0.3316,0.332,0.3319,0.3315,0.3317,0.3277,0.3315,0.3315,0.3315,0.3315,0.3315,0.312,0.3134,0.3149,0.3167,0.3178,0.3192,0.3205,0.3215,0.3231,0.3251,0.3255,0.3276,0.3291,0.3316,0.3326,0.3343,0.3339,0.3345,0.3347,0.3348,0.3349,0.3313,0.3346,0.3346,0.3346,0.3346,0.3346,0,0.3151,0.316,0.3177,0.3197,0.3211,0.3211,0.3226,0.3238,0.3257,0.3271,0.3286,0.3309,0.3327,0.3339,0.3358,0.3369,0.337,0.3374,0.3373,0.3375,0.3351,0.3345,0.3373,0.3373,0.3373,0.3373,0.3373,0.3373,0.3168,0.3191,0.3196,0.3225,0.3234,0.3255,0.3264,0.3276,0.3287,0.3312,0.3327,0.3335,0.3349,0.3368,0.3385,0.3389,0.3395,0.3399,0.3402,0.3379,0.3377,0.3374,0.3369,0.3401,0.3401,0.3425,0.3425,0.3425]},{"header":{"parameterUnit":"m.s-1","parameterCategory":1,"la1":30.2991,"la2":30.254,"lo1":-89.0895,"lo2":-89.0444,"dy":0.0017,"dx":0.0017,"nx":28,"ny":28,"refTime":"2025-11-13T09:00:00:Z","depth":0,"parameterNumber":3,"parameterNumberName":"V-component_of_WINDS"},"data":[0,0,0,0,0,0,0,0,0,0,0,0,0,0,0,0,0,0,0,0,0,0,0,0,0,0,0,0,0,0,0,0,0,0,0,0,0,0,0,0,0,0,0,0,0,0,0,0,0,0,0,0,0,0,0,0,0,0,0.018,0.018,0,0.0154,0.0154,0.0154,0.0125,0.0124,0.0124,0.0124,0.0096,0.0096,0.0095,0,0,0,0,0,0,0,0,0,0,0,0,0,0.0204,0.0204,0.018,0.018,0.018,0.0154,0.0154,0.0154,0.0125,0.0124,0.0124,0.0123,0.0096,0.0096,0.0095,0,0,0,0,0,0,0,0,0,0,0,0,0,0.0187,0.0203,0.018,0.0162,0.016,0.0154,0.0154,0.0154,0.0125,0.0124,0.0124,0.0123,0.0096,0.0096,0.0095,0.0105,0,0,0.0094,0.0093,0,0,0,0,0,0,0,0,0.0188,0.0186,0.0165,0.0164,0.0161,0.0142,0.0152,0.0137,0.0125,0.0138,0.0124,0.0123,0.0112,0.011,0.0106,0.0103,0.0102,0.0094,0.0093,0.0093,0.0093,0,0,0,0,0,0,0,0.0189,0.0187,0.017,0.0165,0.0163,0.0155,0.0152,0.0149,0.0129,0.0137,0.0135,0.0132,0.0111,0.0107,0.0106,0.0102,0.0094,0.0093,0.0093,0.0093,0.0105,0.0105,0,0,0,0,0,0,0.0193,0.0189,0.0171,0.0169,0.0174,0.0155,0.0152,0.0149,0.0129,0.0125,0.0133,0.0131,0.0108,0.0106,0.0105,0.0114,0.0093,0.0093,0.0092,0.0104,0.0105,0.0105,0,0,0,0,0,0,0.0194,0.0192,0.0172,0.0178,0.0175,0.0155,0.0153,0.0149,0.0145,0.0126,0.0122,0.0133,0.0108,0.0105,0.0105,0.0113,0.0092,0.0092,0.0103,0.0104,0.0105,0.0134,0,0,0,0,0,0,0.0195,0.0193,0.0196,0.0179,0.0175,0.0173,0.0153,0.0149,0.0145,0.0142,0.0125,0.0121,0.0107,0.0106,0.0104,0.0112,0.0091,0.0102,0.0104,0.0105,0.0132,0.0136,0.0139,0,0,0,0,0,0.0196,0.0205,0.0197,0.0195,0.0179,0.0174,0.0172,0.0155,0.0145,0.0149,0.0136,0.0122,0.0112,0.0106,0.0104,0.0112,0.0102,0.0103,0.0105,0.0131,0.0135,0.0139,0,0,0,0,0,0,0.0225,0.0203,0.0193,0.0197,0.0188,0.0169,0.0173,0.016,0.0153,0.0151,0.013,0.0127,0.0129,0.012,0.0113,0.0119,0.0105,0.0106,0.0125,0.0129,0.0133,0.0135,0.0091,0,0,0,0,0,0.0231,0.0229,0.021,0.0215,0.0211,0.0193,0.019,0.0178,0.0167,0.0163,0.015,0.014,0.0134,0.0131,0.0125,0.013,0.0126,0.0135,0.0138,0.0141,0.0142,0.0144,0.0148,0.011,0.011,0.011,0,0,0.0245,0.0233,0.0233,0.0221,0.0212,0.021,0.019,0.0188,0.0186,0.0162,0.0162,0.0152,0.0139,0.0141,0.0142,0.0134,0.0152,0.0142,0.0145,0.0145,0.0146,0.015,0.0153,0.0111,0.0111,0.0111,0,0,0.027,0.0261,0.0264,0.0256,0.0243,0.023,0.0231,0.0214,0.0207,0.0206,0.0188,0.0185,0.0176,0.0167,0.0162,0.0182,0.0169,0.0181,0.0198,0.0201,0.0204,0.0206,0.0214,0.0217,0.0182,0.0182,0.0182,0,0.0289,0.0286,0.0268,0.0267,0.0262,0.0241,0.0244,0.0236,0.0222,0.0219,0.021,0.0198,0.0188,0.0188,0.0193,0.0189,0.019,0.0183,0.0205,0.0207,0.0209,0.0216,0.0219,0.0184,0.0183,0.0183,0.0183,0,0.031,0.0308,0.0312,0.0299,0.0294,0.0296,0.0278,0.0275,0.0263,0.0252,0.025,0.0237,0.0228,0.0227,0.0215,0.0225,0.0221,0.0209,0.0194,0.0215,0.0221,0.0224,0.0186,0.0185,0.0185,0.0184,0,0,0.0353,0.033,0.0332,0.0326,0.0309,0.0307,0.0307,0.0298,0.0296,0.0286,0.0286,0.0279,0.0267,0.0261,0.0248,0.025,0.0267,0.0238,0.0237,0.0244,0.0278,0.0288,0.0291,0.0258,0.0258,0.0259,0.0279,0,0.0376,0.0376,0.0359,0.0363,0.0361,0.0339,0.0339,0.0329,0.0318,0.0314,0.0301,0.0296,0.0281,0.0277,0.0278,0.0265,0.0274,0.0263,0.0258,0.0258,0.0263,0.0295,0.0305,0.0325,0.0282,0.0282,0.0282,0,0.0402,0.0395,0.0399,0.0382,0.038,0.0381,0.0371,0.0367,0.0355,0.0346,0.0339,0.0324,0.0323,0.0308,0.0305,0.0298,0.0295,0.0288,0.0288,0.0288,0.0272,0.0296,0.0331,0.0335,0.0286,0.0286,0.0285,0,0.0434,0.0425,0.0426,0.0421,0.0401,0.0402,0.0394,0.0381,0.0376,0.0367,0.0364,0.0355,0.0351,0.0344,0.0327,0.0317,0.0326,0.031,0.0319,0.032,0.0323,0.0323,0.0359,0.0319,0.0319,0.0319,0.0319,0,0.0462,0.0465,0.044,0.0441,0.0444,0.0424,0.0427,0.0417,0.0405,0.0403,0.0384,0.0382,0.0359,0.0355,0.0341,0.0341,0.0339,0.0332,0.0329,0.0334,0.0335,0.0333,0.0331,0.032,0.032,0.0319,0.0319,0,0.0498,0.0482,0.0482,0.0463,0.0458,0.0461,0.0445,0.0444,0.0432,0.0429,0.0428,0.0408,0.0401,0.0383,0.0372,0.0363,0.0367,0.036,0.0372,0.037,0.038,0.038,0.0416,0.042,0.0377,0.0378,0.0378,0,0.0518,0.052,0.0501,0.0499,0.0491,0.0487,0.0483,0.0463,0.0459,0.0444,0.0446,0.0438,0.0431,0.0422,0.0406,0.0398,0.0391,0.0404,0.0389,0.0395,0.0392,0.0392,0.0392,0.0408,0.0408,0.0409,0.0409,0,0.0553,0.0545,0.0539,0.0531,0.0526,0.0518,0.0509,0.0508,0.0486,0.0482,0.0476,0.047,0.0459,0.0452,0.0441,0.0431,0.0417,0.0413,0.0415,0.0422,0.0429,0.0426,0.0382,0.0413,0.0413,0.0412,0.0412,0.0412,0.0582,0.0583,0.057,0.0565,0.0556,0.0548,0.0547,0.0534,0.0528,0.0518,0.0506,0.0501,0.0488,0.0471,0.0463,0.0458,0.045,0.0453,0.0454,0.0455,0.0458,0.0429,0.0456,0.0456,0.0456,0.0456,0.0456,0,0.0618,0.0608,0.0603,0.0591,0.0587,0.0573,0.0562,0.0559,0.0555,0.0544,0.0537,0.053,0.0522,0.0506,0.0497,0.0496,0.0489,0.0494,0.0495,0.0493,0.0465,0.0465,0.05,0.05,0.05,0.05,0.05,0.05,0.0636,0.0637,0.0627,0.0623,0.0613,0.0608,0.0603,0.0595,0.0587,0.0579,0.0573,0.0562,0.0549,0.0538,0.0531,0.0526,0.0524,0.0531,0.0524,0.0499,0.0495,0.0491,0.049,0.0531,0.0531,0.0553,0.0553,0.0553]}]]